Location: Espelette
(43.3402°N, 1.4474°W)
Time: 14:14:21
(UTC+00:00)

Cosmos 1805 Rocket - Pass Details

Date: 19 May 2025
Orbit: 600 x 623 km, 82.5° (Epoch: 17 June)

Event Time Altitude Azimuth Distance (km) Brightness Sun altitude
Rises 23:03:28 0° 358° (N) 2,914 8.3 -25.2°
Reaches altitude 10° 23:05:49 10° 6° (N) 2,001 7.1 -25.4°
Enters shadow 23:09:38 40° 63° (ENE) 914 4.4 -25.5°
